Weather History for Pompano Beach, FL

Change the Weather History Date:

Sunday, January 1, 2012

  Actual Average Record
Temperature  
Mean Temperature 70 °F -  
Max Temperature 78 °F 78 °F 90 °F (1990)
Min Temperature 61 °F 60 °F 34 °F (1949)
Cooling Degree Days 4    
Growing Degree Days 20 (Base 50)    
Moisture  
Dew Point 60 °F    
Average Humidity 70    
Maximum Humidity 93    
Minimum Humidity 52    
Precipitation  
Precipitation 0.00 in - - ()
Sea Level Pressure  
Sea Level Pressure 30.22 in    
Wind  
Wind Speed 5 mph (East)    
Max Wind Speed 10 mph    
Max Gust Speed -    
Visibility 10 miles    
Events      
Averages and records for this station are not official NWS values.
T = Trace of Precipitation, MM = Missing Value Source: NWS Daily Summary

Daily Weather History Graph

Daily Weather History Graph

Search for Another Location

Airport:

Trip Planner

Search our weather history database for the weather conditions in past years. The results will help you decide how hot, cold, wet, or windy it might be!

Date:

Astronomy

Jan. 01, 2012 Rise Set
Actual Time 7:08 AM EST 5:39 PM EST
Civil Twilight 6:42 AM EST 6:05 PM EST
Nautical Twilight 6:14 AM EST 6:33 PM EST
Astronomical Twilight 5:45 AM EST 7:02 PM EST
Moon 12:08 PM EST (1/1) 12:24 AM EST (1/1)
Length of Visible Light 11h 22m
Length of Day
10h 31m
First Quarter, 54% of the Moon is Illuminated
Jan 1
First Quarter
Jan 9
Full
Jan 16
Last Quarter
Jan 23
New
Jan 30
First Quarter

Hourly Weather History & Observations

Time (EST) Temp. Dew Point Humidity Pressure Visibility Wind Dir Wind Speed Gust Speed Precip Events Conditions
12:53 AM 71.1 °F 60.1 °F 68% 30.21 in 10.0 mi East 5.8 mph - N/A   Clear
1:53 AM 71.1 °F 60.1 °F 68% 30.20 in 10.0 mi East 4.6 mph - N/A   Clear
3:53 AM 66.9 °F 57.9 °F 73% 30.18 in 10.0 mi Calm Calm - N/A   Scattered Clouds
4:53 AM 64.9 °F 57.0 °F 75% 30.19 in 10.0 mi Calm Calm - N/A   Partly Cloudy
5:53 AM 61.0 °F 57.0 °F 87% 30.21 in 10.0 mi Calm Calm - N/A   Clear
6:53 AM 61.0 °F 57.9 °F 90% 30.22 in 10.0 mi NW 4.6 mph - N/A   Clear
7:53 AM 63.0 °F 61.0 °F 93% 30.25 in 8.0 mi NNW 3.5 mph - N/A   Clear
8:53 AM 69.1 °F 63.0 °F 81% 30.27 in 10.0 mi NNW 6.9 mph - N/A   Clear
9:53 AM 75.0 °F 62.1 °F 64% 30.27 in 10.0 mi North 4.6 mph - N/A   Clear
10:53 AM 77.0 °F 59.0 °F 54% 30.27 in 10.0 mi East 6.9 mph - N/A   Scattered Clouds
11:53 AM 78.1 °F 59.0 °F 52% 30.25 in 10.0 mi East 8.1 mph - N/A   Clear
12:53 PM 77.0 °F 59.0 °F 54% 30.21 in 10.0 mi East 9.2 mph - N/A   Scattered Clouds
2:53 PM 77.0 °F 61.0 °F 58% 30.19 in 10.0 mi East 10.4 mph - N/A   Partly Cloudy
3:53 PM 75.9 °F 61.0 °F 60% 30.18 in 10.0 mi East 5.8 mph - N/A   Clear
4:53 PM 75.0 °F 59.0 °F 57% 30.19 in 10.0 mi East 6.9 mph - N/A   Clear
6:53 PM 73.0 °F 60.1 °F 64% 30.20 in 10.0 mi ESE 5.8 mph - N/A   Mostly Cloudy
7:53 PM 72.0 °F 60.1 °F 66% 30.21 in 10.0 mi SE 4.6 mph - N/A   Partly Cloudy
8:53 PM 72.0 °F 60.1 °F 66% 30.21 in 10.0 mi SE 3.5 mph - N/A   Clear
9:53 PM 68.0 °F 59.0 °F 73% 30.22 in 10.0 mi Calm Calm - N/A   Clear
10:53 PM 66.0 °F 59.0 °F 78% 30.20 in 10.0 mi Calm Calm - N/A   Clear
11:53 PM 64.0 °F 60.1 °F 87% 30.19 in 10.0 mi West 8.1 mph - N/A   Clear